GW4420 Weather Reports


time (UTC)temp
F
wind
direction
speed
knots
gust
knots
rain 1hr
in
rain 24hr
in
rain mn
in
humidity
%
barometer
mb
20260505032630 67 12 2.6 7.0 0.00 0.30 0.30 84 1021.2
20260505032126 67 19 1.7 5.2 0.00 0.30 0.30 84 1021.1
20260505031624 67 76 0.9 2.6 0.00 0.30 0.30 86 1021.0
20260505031119 66 27 1.7 5.2 0.00 0.30 0.30 86 1021.1
20260505030617 66 300 5.2 8.7 0.00 0.30 0.30 85 1021.3
20260505030113 66 78 0.0 0.9 0.00 0.30 0.30 87 1021.4
20260505025608 66 351 1.7 2.6 0.00 0.30 0.30 87 1021.1
20260505025102 66 79 0.9 2.6 0.00 0.30 0.30 87 1020.8
20260505024559 66 347 3.5 6.1 0.00 0.30 0.30 87 1021.2
20260505024056 65 23 1.7 2.6 0.00 0.30 0.30 88 1021.2
20260505023554 65 343 1.7 8.7 0.00 0.30 0.30 87 1021.3
20260505023051 66 16 3.5 8.7 0.00 0.30 0.30 87 1021.2
20260505022549 65 54 1.7 2.6 0.00 0.30 0.30 88 1021.4
20260505022045 65 43 2.6 3.5 0.00 0.30 0.30 88 1021.4
20260505021542 65 19 2.6 5.2 0.00 0.30 0.30 88 1021.2
20260505021039 65 42 1.7 2.6 0.00 0.30 0.30 89 1021.2
20260505020538 65 47 1.7 3.5 0.00 0.30 0.30 88 1021.2
20260505020036 66 78 0.9 2.6 0.07 0.30 0.30 89 1021.5
20260505015533 65 54 0.9 2.6 0.07 0.30 0.30 89 1021.7
20260505015029 65 328 1.7 3.5 0.00 0.29 0.29 89 1021.4
20260505014526 65 345 2.6 3.5 0.05 0.29 0.29 89 1021.5
20260505014024 65 89 0.9 2.6 0.05 0.29 0.29 89 1021.5
20260505013521 65 68 0.9 5.2 0.07 0.28 0.28 89 1021.6
20260505013018 65 15 2.6 3.5 0.07 0.28 0.28 89 1021.7
20260505012516 65 46 0.0 2.6 0.07 0.27 0.27 89 1021.8
20260505012013 65 80 0.0 1.7 0.05 0.26 0.26 89 1021.9
20260505011508 65 43 0.9 6.1 0.05 0.26 0.26 88 1022.0
20260505011005 64 321 1.7 2.6 0.07 0.25 0.25 88 1022.2
20260505010501 64 68 0.0 2.6 0.07 0.25 0.25 88 1022.2
20260505005957 64 86 0.9 1.7 0.05 0.24 0.24 88 1022.1
20260505005454 64 5 0.9 2.6 0.05 0.24 0.24 88 1022.0
20260505004952 64 325 2.6 2.6 0.07 0.23 0.23 88 1022.0
20260505004448 65 343 3.5 3.5 0.07 0.23 0.23 88 1021.9
20260505003945 65 338 0.0 0.9 0.05 0.22 0.22 88 1022.0
20260505003442 65 38 0.9 2.6 0.12 0.22 0.22 88 1022.2
20260505002938 65 95 0.0 0.9 0.07 0.21 0.21 88 1022.0
20260505002435 65 88 0.0 2.6 0.05 0.20 0.20 88 1022.2
20260505001933 65 5 1.7 2.6 0.12 0.20 0.20 88 1022.0
20260505001431 64 91 0.0 0.9 0.12 0.19 0.19 87 1022.2
20260505000927 64 180 0.9 0.9 0.05 0.18 0.18 87 1022.3
20260505000428 64 73 0.0 0.9 0.00 0.17 0.17 87 1022.1
20260504235922 64 48 0.0 2.6 0.00 0.17 0.17 87 1022.1
20260504235420 64 59 0.9 1.7 0.00 0.17 0.17 87 1022.2
20260504234915 64 76 0.0 1.7 0.00 0.17 0.17 88 1022.1
20260504234408 64 270 1.7 6.1 0.00 0.17 0.17 87 1022.1
20260504233904 64 29 1.7 6.1 0.00 0.17 0.17 87 1022.1
20260504233400 64 93 0.0 1.7 0.00 0.17 0.17 88 1022.1
20260504232856 64 90 0.0 1.7 0.00 0.17 0.17 88 1022.2
20260504232354 64 14 2.6 5.2 0.00 0.17 0.17 88 1022.0
20260504231850 64 302 0.9 2.6 0.00 0.17 0.17 88 1022.1
20260504231347 64 92 0.0 1.7 0.00 0.17 0.17 88 1022.0
20260504230843 64 85 0.9 1.7 0.00 0.17 0.17 88 1022.0
20260504230341 64 58 0.9 1.7 0.00 0.17 0.17 88 1021.9
20260504225840 63 316 0.9 2.6 0.00 0.17 0.17 88 1021.8
20260504225335 63 340 3.5 6.1 0.00 0.17 0.17 88 1021.7
20260504224833 63 330 1.7 2.6 0.00 0.17 0.17 89 1021.8
20260504224329 63 93 0.0 0.9 0.00 0.17 0.17 89 1021.9
20260504223826 63 76 0.0 2.6 0.00 0.17 0.17 89 1021.8
20260504223322 63 93 0.0 0.9 0.00 0.17 0.17 89 1021.6
20260504222819 62 91 0.0 0.9 0.00 0.17 0.17 89 1021.6
20260504222316 62 109 0.0 0.0 0.00 0.17 0.17 90 1021.7
20260504221814 62 7 0.9 0.9 0.00 0.17 0.17 89 1021.4
20260504221310 62 340 0.9 5.2 0.00 0.17 0.17 90 1021.7
20260504220808 62 182 0.0 0.0 0.00 0.17 0.17 89 1021.5
20260504220304 62 97 0.0 1.7 0.00 0.17 0.17 89 1021.6
20260504215802 62 68 0.9 2.6 0.00 0.17 0.17 89 1021.5
20260504215258 61 26 1.7 5.2 0.00 0.17 0.17 89 1021.6
20260504214754 61 312 2.6 3.5 0.00 0.17 0.17 90 1021.2
20260504214251 61 287 3.5 5.2 0.00 0.17 0.17 90 1021.3
20260504213747 61 22 0.0 2.6 0.00 0.17 0.17 90 1021.0
20260504213243 61 21 1.7 2.6 0.00 0.17 0.17 91 1021.1
20260504212741 62 109 0.0 1.7 0.00 0.17 0.17 91 1021.1
20260504212237 62 80 0.0 2.6 0.07 0.17 0.17 91 1020.7
20260504211735 62 63 0.0 1.7 0.00 0.16 0.16 91 1021.0
20260504211231 62 62 0.9 0.9 0.00 0.16 0.16 91 1020.9
20260504210728 62 319 0.0 0.0 0.00 0.16 0.16 91 1020.8
20260504210226 62 99 0.0 0.0 0.00 0.16 0.16 91 1020.9
20260504205722 61 98 0.0 0.0 0.00 0.16 0.16 91 1021.0
20260504205220 61 358 0.9 1.7 0.00 0.16 0.16 91 1020.6
20260504204718 61 85 0.9 1.7 0.00 0.16 0.16 91 1020.5
20260504204216 61 52 0.0 1.7 0.00 0.16 0.16 91 1020.6
20260504203715 61 93 0.0 2.6 0.00 0.16 0.16 91 1020.3
20260504203212 61 7 0.9 2.6 0.00 0.16 0.16 91 1020.5
20260504202712 61 48 0.0 3.5 0.00 0.16 0.16 91 1020.3
20260504202209 61 75 1.7 1.7 0.00 0.16 0.16 91 1020.3
20260504201706 60 75 0.0 0.0 0.00 0.16 0.16 91 1020.4
20260504201204 60 84 0.9 2.6 0.00 0.16 0.16 91 1020.4
20260504200701 60 354 1.7 2.6 0.00 0.16 0.16 91 1020.4
20260504200157 60 314 1.7 3.5 0.00 0.16 0.16 92 1020.2
20260504195653 61 350 1.7 3.5 0.00 0.16 0.16 92 1020.2
20260504195149 61 81 0.9 2.6 0.05 0.16 0.16 92 1020.4
20260504194646 61 359 2.6 6.1 0.05 0.16 0.16 92 1020.4
20260504194142 61 348 4.3 6.1 0.00 0.15 0.15 92 1020.5
20260504193639 61 329 1.7 7.0 0.00 0.15 0.15 92 1020.6
20260504193137 60 298 1.7 3.5 0.00 0.15 0.15 92 1020.6
20260504192635 60 11 2.6 5.2 0.00 0.15 0.15 92 1020.7
20260504192133 60 76 2.6 3.5 0.00 0.15 0.15 92 1020.9
20260504191631 60 324 3.5 5.2 0.00 0.15 0.15 92 1020.9
20260504191127 60 282 3.5 5.2 0.00 0.15 0.15 92 1021.2
20260504190623 60 299 3.5 7.0 0.00 0.15 0.15 92 1021.3
20260504190120 60 35 1.7 6.1 0.00 0.15 0.15 92 1021.3
20260504185616 60 319 2.6 5.2 0.07 0.15 0.15 92 1021.1
20260504185113 60 358 2.6 6.1 0.14 0.15 0.15 92 1021.2
20260504184609 60 311 2.6 5.2 0.07 0.14 0.14 92 1021.4
20260504184104 60 336 1.7 7.0 0.05 0.13 0.13 92 1021.4
20260504183601 60 314 3.5 5.2 0.17 0.13 0.13 92 1021.3
20260504183059 60 311 5.2 7.0 0.12 0.12 0.12 91 1021.1
20260504182556 60 288 2.6 5.2 0.07 0.10 0.10 91 1021.3
20260504182053 60 315 3.5 5.2 0.05 0.09 0.09 91 1021.3
20260504181550 59 303 5.2 7.8 0.12 0.09 0.09 91 1021.3
20260504181048 59 73 0.0 3.5 0.12 0.08 0.08 91 1021.6
20260504180547 59 328 0.9 3.5 0.12 0.07 0.07 91 1021.6
20260504180046 59 76 0.0 3.5 0.12 0.06 0.06 90 1021.4
20260504175542 59 6 0.9 1.7 0.12 0.05 0.05 90 1021.3
20260504175039 59 353 2.6 5.2 0.07 0.04 0.04 90 1021.5
20260504174537 59 333 2.6 3.5 0.07 0.03 0.03 89 1021.7
20260504174034 59 269 5.2 6.1 0.07 0.03 0.03 89 1021.8
20260504173530 59 292 1.7 2.6 0.12 0.02 0.02 88 1022.0
20260504173023 60 341 0.9 5.2 0.07 0.01 0.01 87 1022.0
20260504172519 60 226 0.9 5.2 0.00 0.00 0.00 87 1021.9
20260504172015 60 310 2.6 3.5 0.00 0.00 0.00 86 1021.8
20260504171512 61 279 0.9 1.7 0.00 0.00 0.00 86 1021.8
20260504171009 60 101 0.0 1.7 0.00 0.00 0.00 86 1021.9
20260504170505 61 25 0.9 5.2 0.00 0.00 0.00 85 1021.8
20260504160425 62 296 4.3 9.6 0.00 0.00 0.00 86 1022.0
20260504150849 63 79 0.9 6.1 0.00 0.00 0.00 86 1022.6
20260504150346 63 272 1.7 3.5 0.00 0.00 0.00 86 1022.7
20260504141316 63 344 2.6 3.5 0.00 0.93 0.93 85 1022.4
20260504140812 64 294 1.7 3.5 0.00 0.93 0.93 85 1022.3
20260504140308 64 299 3.5 6.1 0.00 0.93 0.93 84 1022.6
20260504130737 64 272 3.5 6.1 0.00 0.93 0.93 83 1022.5
20260504130233 64 331 7.0 11.3 0.00 0.93 0.93 82 1022.4
20260504120156 66 325 1.7 6.1 0.00 0.93 0.93 76 1021.9
20260504110624 66 280 0.9 1.7 0.00 0.92 0.92 76 1021.3
20260504110120 66 90 0.0 0.9 0.00 0.92 0.92 75 1021.1
20260504100545 66 81 0.0 0.0 0.00 0.92 0.92 76 1020.8
20260504081939 65 60 0.9 1.7 0.00 0.92 0.92 77 1020.3
20260504081436 65 354 0.9 1.7 0.00 0.92 0.92 77 1020.2
20260504080932 64 87 0.9 1.7 0.00 0.92 0.92 77 1020.2
20260504080428 64 59 0.0 0.9 0.00 0.92 0.92 77 1020.4
20260504070350 65 52 0.9 5.2 0.00 0.88 0.88 81 1020.3
20260504050737 68 345 1.7 2.6 0.00 0.78 0.78 76 1019.9
20260504050235 68 287 0.9 7.0 0.00 0.78 0.78 76 1019.9
20260504045732 68 29 3.5 11.3 0.00 0.78 0.78 76 1020.2
20260504045227 68 91 3.5 5.2 0.00 0.78 0.78 77 1019.8
20260504044725 67 66 0.9 7.8 0.00 0.78 0.78 78 1020.1
20260504044222 67 333 1.7 5.2 0.00 0.78 0.78 78 1020.4
20260504043719 67 9 2.6 6.1 0.00 0.78 0.78 78 1020.2
20260504043215 67 347 3.5 7.0 0.00 0.78 0.78 77 1020.3
20260504042713 67 93 2.6 3.5 0.00 0.78 0.78 78 1020.5
20260504042210 68 26 3.5 3.5 0.00 0.78 0.78 79 1020.4
20260504041706 68 268 1.7 3.5 0.00 0.78 0.78 80 1020.4
20260504041201 68 51 0.0 3.5 0.00 0.78 0.78 81 1020.7
20260504040658 69 296 4.3 7.0 0.00 0.78 0.78 81 1020.6
20260504040155 69 43 0.9 0.9 0.00 0.78 0.78 83 1020.6
20260504035652 69 298 1.7 3.5 0.00 0.78 0.78 83 1020.7
20260504035149 69 98 0.9 2.6 0.00 0.78 0.78 83 1020.6
20260504034647 69 317 1.7 1.7 0.05 0.78 0.78 82 1020.9
20260504034143 69 128 0.9 3.5 0.05 0.78 0.78 82 1020.8
20260504033641 69 95 0.9 3.5 0.00 0.77 0.77 82 1020.9
20260504033138 69 359 0.9 0.9 0.00 0.77 0.77 83 1021.1